Terminal Aerodrome Forecast
Issued by NWS Amarillo, TX

Home | Current Version | Previous Version | Text Only | Print | Product List | Glossary On
Versions: 1 2 3 4 5 6 7 8 9 10 11 12 13
000
FTUS44 KAMA 190520
TAFAMA
TAF
KAMA 190520Z 1906/2006 19010KT P6SM SCT300
     FM191800 21016KT P6SM FEW300
     FM200100 24010KT P6SM SCT300=

USA.gov is the U.S. government's official web portal to all federal, state and local government web resources and services.